Content
SEND FEEDBACK

Daily
Averages
Monthly
Summary
United States of America

CRYSTAL FALL, ALASKA


Home > North America > United States > Alaska
Elevation: 529 feet     Latitude: 60 32N     Longitude: 145 45W

WEATHER
 
SELECT A DAY
Number of Records: 218,226;   Date Range: 1/1/95 - 12/23/14
 
SHARE

PRINT THIS DATA

[ ← Previous Day ]
WEATHER ALMANAC - JANUARY 31, 2013
[ Next Day → ]
[ °C ]   °F
Weather ElementAverageHighLow
Temperature36.7 °F39.9 °F (1:53 am)30 °F (10:53 pm)
Dewpoint34.6 °F37.4 °F (1:39 pm)28 °F (11:53 pm)
Humidity92 %100 % (6:10 pm)79 % (4:53 am)
Barometer29.88 in29.99 in (11:53 pm)29.78 in (4:38 am)
Wind Speed2.9 mph11.5 mph (1:53 am)
Wind Gust17.3 mph (1:53 am)
Weather ElementAverage
Visibility8.5 mi
Wind DirectionNNE (25.3 °)

Weather ElementTotal
Precipitation0.23 in
Heating Degree Days30.1 (Base 65)
Averaged from 30 records on January 31, 2013
WEATHER CONDITIONS BREAKOUT
WIND DIRECTION BREAKOUT
WEATHER BY HOUR - JANUARY 31, 2013
[ °C ]   °F
Local TimeTemperatureDewpointHumidityBarometerVisibilityWind DirectionWind SpeedGust SpeedPrecipitationEventsConditions
1:53 AM39.9 °F35.1 °F83 %29.80 in10.0 miESE (110°)11.5 mph17.3 mph0.01 inRainLight Rain
3:53 AM39.0 °F35.1 °F86 %29.79 in10.0 miENE (70°)10.4 mph0.02 inRainLight Rain
4:38 AM39.2 °F35.6 °F87 %29.78 in10.0 miENE (70°)9.2 mph0.00 inRainLight Rain
4:48 AM39.2 °F35.6 °F87 %29.78 in10.0 miENE (70°)10.4 mph16.1 mph0.00 inRainLight Rain
4:53 AM39.9 °F34.0 °F79 %29.78 in10.0 miENE (60°)9.2 mph16.1 mph0.00 inRainLight Rain
5:53 AM39.9 °F34.0 °F79 %29.78 in10.0 miEast (80°)8.1 mph0.01 inRainLight Rain
6:53 AM39.9 °F35.1 °F83 %29.78 in10.0 miNE (50°)6.9 mph0.01 inRainLight Rain
7:53 AM37.0 °F35.1 °F93 %29.80 in10.0 miCalm0.03 inRainLight Rain
8:53 AM37.9 °F36.0 °F93 %29.81 in6.0 miNE (50°)4.6 mph0.03 inRainLight Rain
9:53 AM37.9 °F35.1 °F89 %29.83 in9.0 miENE (60°)6.9 mph0.02 inRainLight Rain
10:14 AM37.4 °F35.6 °F93 %29.83 in9.0 miENE (70°)4.6 mph0.00 inRainLight Rain
10:53 AM37.9 °F36.0 °F93 %29.85 in10.0 miCalm0.01 inRainLight Rain
11:53 AM37.9 °F36.0 °F93 %29.87 in6.0 miCalm0.06 inRainLight Rain
12:53 PM39.0 °F36.0 °F89 %29.88 in10.0 miENE (70°)4.6 mph0.03 inRainLight Rain
1:39 PM39.2 °F37.4 °F93 %29.88 in10.0 miCalm0.00 inOvercast
1:53 PM39.0 °F37.0 °F93 %29.89 in10.0 miCalm0.00 inOvercast
2:53 PM39.0 °F36.0 °F89 %29.90 in10.0 miCalmOvercast
3:53 PM37.9 °F37.0 °F97 %29.91 in10.0 miCalmOvercast
4:53 PM37.0 °F36.0 °F96 %29.92 in10.0 miCalmOvercast
5:53 PM36.0 °F35.1 °F97 %29.93 in2.5 miCalmOvercast
6:10 PM35.6 °F35.6 °F100 %29.93 in10.0 miCalmOvercast
6:42 PM35.6 °F35.6 °F100 %29.94 in1.8 miCalmOvercast
6:53 PM35.1 °F34.0 °F96 %29.94 in1.8 miCalmOvercast
7:01 PM35.6 °F33.8 °F93 %29.94 in2.0 miCalmOvercast
7:11 PM33.8 °F33.8 °F100 %29.94 in7.0 miCalmOvercast
7:53 PM33.1 °F32.0 °F96 %29.95 in10.0 miCalmOvercast
8:53 PM32.0 °F32.0 °F100 %29.96 in10.0 miCalmOvercast
9:53 PM30.9 °F30.0 °F96 %29.96 in10.0 miCalmScattered Clouds
10:53 PM30.0 °F28.9 °F96 %29.97 in10.0 miCalmClear
11:53 PM30.0 °F28.0 °F92 %29.99 in10.0 miCalmPartly Cloudy
Hourly data recorded from PACV, located miles away from Crystal Fall, Alaska







STORIES FROM OUR PARTNERS